Location: Indian Hills
(32.9760°N, 85.9450°W)
Time: 05:17:42
(UTC+00:00)

Atlas Centaur 2 - Pass Details

Date: 09 December 2019
Orbit: 459 x 1310 km, 30.4° (Epoch: 23 January)

Event Time Altitude Azimuth Distance (km) Brightness Sun altitude
Rises 00:51:26 0° 275° (W) 4,047 6.9 -27.5°
Reaches altitude 10° 00:54:26 10° 267° (W) 3,172 6.1 -28.1°
Maximum altitude 01:01:38 35° 205° (SSW) 1,958 4.2 -29.6°
Enters shadow 01:06:32 20° 155° (SSE) 2,629 4.5 -30.6°
